• In Belarus
  • List of Countries
  • For 7 days
  • Water Temperature
  • Weather Map
  • Weather Widgets
  • user-avatar
    Login

    Hourly Weather Trowbridge

    Today, 19 February, Wednesday

    Time Temperature Precipitation Wind Pressure Humidity
    00:00 +1°C° 0 mm 5 mps 760 mmHg 87%
    01:00 +1°C° 0 mm 5 mps 760 mmHg 87%
    02:00 +1°C° 0 mm 5 mps 760 mmHg 87%
    03:00 +1°C° 0 mm 5 mps 761 mmHg 86%
    04:00 +1°C° 0 mm 4 mps 761 mmHg 86%
    05:00 +1°C° 0 mm 4 mps 761 mmHg 87%
    06:00 +2°C° 0 mm 3 mps 762 mmHg 89%
    07:00 +3°C° 0 mm 4 mps 762 mmHg 88%
    08:00 +3°C° 0 mm 4 mps 762 mmHg 88%
    09:00 +4°C° 0 mm 4 mps 762 mmHg 87%
    10:00 +3°C° 0.2 mm 5 mps 762 mmHg 90%
    11:00 +5°C° 0.2 mm 5 mps 762 mmHg 92%
    12:00 +4°C° 0.2 mm 6 mps 761 mmHg 94%
    13:00 +6°C° 0.4 mm 5 mps 761 mmHg 92%
    14:00 +7°C° 0.4 mm 5 mps 760 mmHg 91%
    15:00 +7°C° 0.4 mm 5 mps 759 mmHg 89%
    16:00 +7°C° 0.1 mm 5 mps 759 mmHg 89%
    17:00 +7°C° 0.1 mm 5 mps 758 mmHg 89%
    18:00 +7°C° 0.1 mm 6 mps 757 mmHg 89%
    19:00 +7°C° 0 mm 6 mps 757 mmHg 89%
    20:00 +7°C° 0 mm 6 mps 757 mmHg 89%
    21:00 +6°C° 0 mm 7 mps 757 mmHg 89%
    22:00 +6°C° 0 mm 7 mps 756 mmHg 89%
    23:00 +6°C° 0 mm 7 mps 756 mmHg 89%

    Tomorrow, 20 February, Thursday

    Time Temperature Precipitation Wind Pressure Humidity
    00:00 +6°C° 0 mm 7 mps 756 mmHg 88%
    01:00 +6°C° 0.1 mm 8 mps 755 mmHg 89%
    02:00 +7°C° 0.1 mm 8 mps 754 mmHg 89%
    03:00 +7°C° 0.1 mm 8 mps 754 mmHg 89%
    04:00 +7°C° 0 mm 8 mps 753 mmHg 89%
    05:00 +7°C° 0 mm 9 mps 753 mmHg 89%
    06:00 +7°C° 0 mm 9 mps 752 mmHg 89%
    07:00 +7°C° 0.2 mm 10 mps 752 mmHg 89%
    08:00 +7°C° 0.2 mm 10 mps 751 mmHg 89%
    09:00 +8°C° 0.2 mm 11 mps 751 mmHg 90%
    10:00 +6°C° 1.2 mm 10 mps 751 mmHg 90%
    11:00 +5°C° 1.2 mm 10 mps 752 mmHg 91%
    12:00 +2°C° 1.2 mm 9 mps 753 mmHg 92%
    13:00 +2°C° 0.1 mm 9 mps 754 mmHg 84%
    14:00 +3°C° 0.1 mm 9 mps 755 mmHg 76%
    15:00 +3°C° 0.1 mm 9 mps 757 mmHg 68%
    16:00 +2°C° 0 mm 8 mps 758 mmHg 69%
    17:00 +2°C° 0 mm 6 mps 759 mmHg 71%
    18:00 +1°C° 0 mm 5 mps 760 mmHg 73%
    19:00 +1°C° 0 mm 5 mps 761 mmHg 75%
    20:00 +1°C° 0 mm 5 mps 762 mmHg 76%
    21:00 +1°C° 0 mm 5 mps 762 mmHg 77%
    22:00 +1°C° 0 mm 4 mps 763 mmHg 79%
    23:00 +1°C° 0 mm 4 mps 763 mmHg 81%

    Day after tomorrow, 21 February, Friday

    Time Temperature Precipitation Wind Pressure Humidity
    00:00 +1°C° 0 mm 4 mps 764 mmHg 82%
    01:00 0°C° 0 mm 4 mps 764 mmHg 84%
    02:00 0°C° 0 mm 4 mps 764 mmHg 86%
    03:00 0°C° 0 mm 4 mps 765 mmHg 88%
    04:00 +1°C° 0 mm 4 mps 765 mmHg 88%
    05:00 +1°C° 0 mm 4 mps 765 mmHg 87%
    06:00 +1°C° 0 mm 5 mps 765 mmHg 87%
    13:00 +7°C° 0 mm 9 mps 764 mmHg 75%
    14:00 +7°C° 0 mm 9 mps 763 mmHg 75%
    15:00 +8°C° 0 mm 9 mps 763 mmHg 75%
    16:00 +7°C° 0 mm 8 mps 763 mmHg 78%
    17:00 +6°C° 0 mm 8 mps 763 mmHg 81%
    18:00 +5°C° 0 mm 7 mps 763 mmHg 85%
    19:00 +5°C° 0 mm 8 mps 762 mmHg 84%
    20:00 +5°C° 0 mm 8 mps 762 mmHg 84%
    21:00 +5°C° 0 mm 8 mps 762 mmHg 84%
    22:00 +6°C° 0 mm 8 mps 762 mmHg 83%
    23:00 +6°C° 0 mm 9 mps 761 mmHg 82%

    22 February, Saturday

    Time Temperature Precipitation Wind Pressure Humidity
    00:00 +6°C° 0 mm 9 mps 761 mmHg 81%
    01:00 +6°C° 0.1 mm 9 mps 761 mmHg 82%
    02:00 +7°C° 0.1 mm 9 mps 760 mmHg 83%
    03:00 +7°C° 0.1 mm 10 mps 759 mmHg 84%
    04:00 +8°C° 0.2 mm 10 mps 759 mmHg 86%
    05:00 +8°C° 0.2 mm 10 mps 759 mmHg 87%
    06:00 +8°C° 0.2 mm 9 mps 759 mmHg 89%
    07:00 +10°C° 0 mm 9 mps 760 mmHg 88%
    08:00 +10°C° 0 mm 9 mps 760 mmHg 88%
    09:00 +10°C° 0 mm 9 mps 760 mmHg 88%
    10:00 +10°C° 0 mm 9 mps 761 mmHg 85%
    11:00 +10°C° 0 mm 9 mps 761 mmHg 83%
    12:00 +10°C° 0 mm 9 mps 762 mmHg 80%
    13:00 +10°C° 0 mm 9 mps 762 mmHg 78%
    14:00 +10°C° 0 mm 9 mps 762 mmHg 76%
    15:00 +8°C° 0 mm 9 mps 761 mmHg 73%
    16:00 +9°C° 0 mm 8 mps 762 mmHg 76%
    17:00 +8°C° 0 mm 7 mps 762 mmHg 79%
    18:00 +7°C° 0 mm 6 mps 762 mmHg 82%
    19:00 +7°C° 0 mm 6 mps 763 mmHg 83%
    20:00 +7°C° 0 mm 6 mps 763 mmHg 84%
    21:00 +5°C° 0 mm 6 mps 763 mmHg 86%
    22:00 +6°C° 0 mm 5 mps 763 mmHg 86%
    23:00 +6°C° 0 mm 5 mps 763 mmHg 87%

    23 February, Sunday

    Time Temperature Precipitation Wind Pressure Humidity
    00:00 +7°C° 0 mm 5 mps 763 mmHg 88%
    01:00 +7°C° 0.4 mm 5 mps 762 mmHg 89%
    02:00 +7°C° 0.4 mm 5 mps 761 mmHg 90%
    03:00 +7°C° 0.4 mm 5 mps 760 mmHg 91%
    04:00 +8°C° 1 mm 7 mps 759 mmHg 92%
    05:00 +9°C° 1 mm 8 mps 758 mmHg 92%
    06:00 +11°C° 1 mm 10 mps 757 mmHg 92%
    07:00 +11°C° 0.6 mm 11 mps 757 mmHg 91%
    08:00 +11°C° 0.6 mm 11 mps 756 mmHg 91%
    09:00 +10°C° 0.6 mm 12 mps 756 mmHg 90%
    10:00 +11°C° 0.2 mm 11 mps 757 mmHg 88%
    11:00 +9°C° 0.2 mm 10 mps 757 mmHg 86%
    12:00 +9°C° 0.2 mm 10 mps 758 mmHg 84%
    13:00 +8°C° 0.1 mm 9 mps 759 mmHg 81%
    14:00 +7°C° 0.1 mm 9 mps 760 mmHg 78%
    15:00 +7°C° 0.1 mm 8 mps 761 mmHg 75%
    16:00 +5°C° 0 mm 7 mps 763 mmHg 76%
    17:00 +4°C° 0 mm 6 mps 764 mmHg 78%
    18:00 +4°C° 0 mm 4 mps 765 mmHg 79%
    19:00 +3°C° 0 mm 4 mps 766 mmHg 80%
    20:00 +2°C° 0 mm 3 mps 767 mmHg 81%
    21:00 +2°C° 0 mm 2 mps 768 mmHg 82%
    22:00 +2°C° 0 mm 2 mps 769 mmHg 82%
    23:00 +2°C° 0 mm 2 mps 769 mmHg 81%

    24 February, Monday

    Time Temperature Precipitation Wind Pressure Humidity
    00:00 +3°C° 0 mm 1 mps 769 mmHg 81%
    01:00 +3°C° 0 mm 1 mps 769 mmHg 80%
    02:00 +3°C° 0 mm 1 mps 769 mmHg 79%
    03:00 +3°C° 0 mm 1 mps 769 mmHg 79%
    04:00 +2°C° 0 mm 2 mps 768 mmHg 78%
    05:00 +2°C° 0 mm 2 mps 768 mmHg 77%
    06:00 +2°C° 0 mm 3 mps 768 mmHg 76%
    07:00 +2°C° 0 mm 5 mps 767 mmHg 76%
    08:00 +3°C° 0 mm 6 mps 766 mmHg 77%
    09:00 +4°C° 0 mm 7 mps 765 mmHg 78%
    10:00 +5°C° 0 mm 8 mps 763 mmHg 81%
    11:00 +6°C° 0 mm 8 mps 762 mmHg 85%
    12:00 +7°C° 0 mm 9 mps 761 mmHg 88%
    13:00 +8°C° 0 mm 9 mps 760 mmHg 87%
    14:00 +9°C° 0 mm 10 mps 759 mmHg 86%
    15:00 +11°C° 0 mm 11 mps 758 mmHg 85%
    16:00 +11°C° 0 mm 10 mps 757 mmHg 84%
    17:00 +9°C° 0 mm 10 mps 756 mmHg 83%
    18:00 +9°C° 0 mm 10 mps 756 mmHg 82%
    19:00 +9°C° 0 mm 10 mps 755 mmHg 83%
    20:00 +9°C° 0 mm 10 mps 755 mmHg 84%
    21:00 +9°C° 0 mm 10 mps 755 mmHg 84%
    22:00 +10°C° 0.5 mm 9 mps 754 mmHg 88%
    23:00 +10°C° 0.5 mm 8 mps 754 mmHg 91%
    Show more